Location: Ferques
(50.8300°N, 1.7599°E)
Time: 22:08:06
(UTC+00:00)

Cosmos 1408 Rocket - Pass Details

Date: 19 May 2025
Orbit: 594 x 625 km, 82.6° (Epoch: 18 June)

Event Time Altitude Azimuth Distance (km) Brightness Sun altitude
Rises 22:54:22 0° 350° (N) 2,887 8.7 -18.2°
Reaches altitude 10° 22:56:37 10° 353° (N) 1,972 7.4 -18.2°
Maximum altitude 23:00:59 76° 79° (E) 629 3.5 -18.4°
Enters shadow 23:02:24 41° 156° (SSE) 877 3.8 -18.4°
